Location: GMARS
(34.2910°N, 116.3838°W)
Time: 09:56:29
(UTC-07:00)

ISS - Visible Passes

Search period start: 21 April 2019 00:00
Search period end: 01 May 2019 00:00
Orbit: 408 x 410 km, 51.6° (Epoch: 22 April)

Date Brightness Start Highest point End Pass type
(mag) Time Alt. Az. Time Alt. Az. Time Alt. Az.
25 Apr -1.0 05:02:21 10° SSE 05:04:02 13° SE 05:05:43 10° E visible
27 Apr -2.7 04:56:16 15° SSW 04:58:39 39° SE 05:01:47 10° ENE visible
28 Apr -1.7 04:07:41 19° SE 04:07:56 19° SE 04:10:22 10° E visible
29 Apr -3.7 04:51:45 26° WSW 04:53:24 62° NW 04:56:41 10° NE visible
30 Apr -3.2 04:02:58 53° E 04:02:58 53° E 04:05:48 10° NE visible
